TIANLIAN 2-01

Last updated on Oct. 26, 2020, 5:52 a.m. UTC

1 44076U 19017A   20299.92837319 -.00000152  00000-0  00000-0 0  9992
2 44076   1.7026 285.1097 0033014 221.0238 302.9258  1.00271515  5950
UTC
Height (km)
Latitude
Longitude
Inclination
Orbital Period
UTC large
Height (km)
Speed (km/s)
/
Latitude / Longitude
Inclination (degrees)
Orbital Period (minutes)
Azimuth
Elevation
Range (km)
Doppler Factor
iOS Compass Heading
iOS Angle

Next 30 passes for location: Hong Kong

Rise time Rise Azimuth (degrees) Set time Set Azimuth (degrees) Duration Max altitude (degrees)

No matching passes for this satellites